Location: Madrid
(40.4000°N, 3.6830°W)
Time: 08:44:36
(UTC+02:00)

ISS - Pass Details

Date: 17 July 2017
Orbit: 400 x 408 km, 51.6° (Epoch: 21 July)

Event Time Altitude Azimuth Distance (km) Brightness Sun altitude
Exits shadow 03:52:15 15° 325° (NW) 1,203 -1.1 -24.8°
Maximum altitude 03:53:07 16° 344° (NNW) 1,147 -1.0 -24.8°
Drops below altitude 10° 03:55:14 10° 25° (NNE) 1,456 0.1 -24.6°
Sets 03:57:54 0° 48° (NE) 2,319 1.1 -24.4°
